TimeCST,TemperatureF,Dew PointF,Humidity,Sea Level PressureIn,VisibilityMPH,Wind Direction,Wind SpeedMPH,Gust SpeedMPH,PrecipitationIn,Events,Conditions,WindDirDegrees,DateUTC
12:15 AM,37.4,21.2,52,30.09,10.0,SSW,11.5,-,N/A,,Clear,210,2012-12-31 06:15:00
12:35 AM,37.4,21.2,52,30.09,10.0,SSW,9.2,-,N/A,,Clear,210,2012-12-31 06:35:00
12:55 AM,37.4,21.2,52,30.09,10.0,SSW,11.5,16.1,N/A,,Clear,210,2012-12-31 06:55:00
1:15 AM,37.4,21.2,52,30.09,10.0,SSW,11.5,-,N/A,,Clear,210,2012-12-31 07:15:00
1:35 AM,37.4,21.2,52,30.10,10.0,SSW,10.4,-,N/A,,Clear,210,2012-12-31 07:35:00
1:55 AM,37.4,21.2,52,30.09,10.0,SW,10.4,-,N/A,,Clear,220,2012-12-31 07:55:00
2:15 AM,37.4,21.2,52,30.10,10.0,SW,12.7,16.1,N/A,,Clear,220,2012-12-31 08:15:00
2:35 AM,37.4,21.2,52,30.11,10.0,SW,10.4,-,N/A,,Clear,220,2012-12-31 08:35:00
2:55 AM,37.4,21.2,52,30.10,10.0,SW,11.5,-,N/A,,Clear,230,2012-12-31 08:55:00
3:15 AM,37.4,21.2,52,30.10,10.0,SW,11.5,-,N/A,,Clear,230,2012-12-31 09:15:00
3:35 AM,37.4,21.2,52,30.10,10.0,SW,13.8,-,N/A,,Scattered Clouds,230,2012-12-31 09:35:00
3:55 AM,37.4,21.2,52,30.10,10.0,SW,15.0,20.7,N/A,,Clear,230,2012-12-31 09:55:00
4:15 AM,37.4,21.2,52,30.09,10.0,WSW,12.7,-,N/A,,Scattered Clouds,240,2012-12-31 10:15:00
4:35 AM,37.4,21.2,52,30.08,10.0,WSW,9.2,-,N/A,,Mostly Cloudy,240,2012-12-31 10:35:00
4:55 AM,37.4,21.2,52,30.08,10.0,WSW,10.4,-,N/A,,Scattered Clouds,240,2012-12-31 10:55:00
5:15 AM,37.4,21.2,52,30.08,10.0,WSW,9.2,-,N/A,,Scattered Clouds,240,2012-12-31 11:15:00
5:35 AM,37.4,23.0,56,30.09,10.0,WSW,9.2,-,N/A,,Scattered Clouds,240,2012-12-31 11:35:00
5:55 AM,37.4,23.0,56,30.09,10.0,WSW,9.2,-,N/A,,Scattered Clouds,240,2012-12-31 11:55:00
6:15 AM,37.4,23.0,56,30.10,10.0,WSW,10.4,-,N/A,,Mostly Cloudy,240,2012-12-31 12:15:00
6:55 AM,35.6,23.0,60,30.11,10.0,SW,9.2,-,N/A,,Overcast,230,2012-12-31 12:55:00
7:15 AM,35.6,23.0,60,30.11,10.0,WSW,6.9,-,N/A,,Overcast,250,2012-12-31 13:15:00
7:35 AM,35.6,24.8,65,30.10,10.0,West,5.8,-,N/A,,Overcast,270,2012-12-31 13:35:00
7:55 AM,35.6,24.8,65,30.10,10.0,West,5.8,-,N/A,,Overcast,270,2012-12-31 13:55:00
8:15 AM,35.6,24.8,65,30.11,5.0,West,9.2,-,N/A,Snow,Light Snow,280,2012-12-31 14:15:00
8:35 AM,33.8,24.8,70,30.12,1.5,NNW,4.6,-,N/A,Snow,Light Snow,340,2012-12-31 14:35:00
8:55 AM,30.2,24.8,80,30.14,1.0,NNW,5.8,-,N/A,Snow,Light Snow,340,2012-12-31 14:55:00
9:15 AM,30.2,24.8,80,30.14,0.8,NNW,3.5,-,N/A,Snow,Light Snow,330,2012-12-31 15:15:00
9:35 AM,30.2,24.8,80,30.14,0.8,NNW,4.6,-,N/A,Snow,Light Snow,330,2012-12-31 15:35:00
9:55 AM,30.2,24.8,80,30.14,1.0,North,5.8,-,N/A,Snow,Light Snow,350,2012-12-31 15:55:00
10:15 AM,28.4,21.2,74,30.15,2.0,NNW,6.9,-,N/A,Snow,Light Snow,340,2012-12-31 16:15:00
10:35 AM,28.4,21.2,74,30.15,1.0,NNW,8.1,-,N/A,Snow,Light Snow,340,2012-12-31 16:35:00
10:55 AM,26.6,21.2,80,30.15,1.5,NNW,8.1,-,N/A,Snow,Light Snow,340,2012-12-31 16:55:00
11:15 AM,26.6,21.2,80,30.15,1.2,NNW,8.1,-,N/A,Snow,Light Snow,330,2012-12-31 17:15:00
11:35 AM,26.6,19.4,74,30.14,1.0,NNW,8.1,-,N/A,Snow,Light Snow,330,2012-12-31 17:35:00
11:55 AM,26.6,19.4,74,30.14,1.0,NW,9.2,-,N/A,Snow,Light Snow,310,2012-12-31 17:55:00
12:15 PM,26.6,19.4,74,30.13,1.0,NNW,6.9,-,N/A,Snow,Light Snow,330,2012-12-31 18:15:00
12:35 PM,26.6,19.4,74,30.12,0.8,NNW,5.8,-,N/A,Snow,Light Snow,330,2012-12-31 18:35:00
12:55 PM,26.6,19.4,74,30.12,0.8,NNW,6.9,-,N/A,Snow,Light Snow,330,2012-12-31 18:55:00
1:15 PM,26.6,19.4,74,30.12,1.2,NNW,4.6,-,N/A,Snow,Light Snow,330,2012-12-31 19:15:00
1:35 PM,24.8,19.4,80,30.11,2.5,NNW,8.1,-,N/A,Snow,Light Snow,330,2012-12-31 19:35:00
1:55 PM,24.8,17.6,74,30.11,10.0,NNW,8.1,-,N/A,Snow,Light Snow,330,2012-12-31 19:55:00
2:15 PM,26.6,17.6,69,30.11,10.0,NNW,8.1,-,N/A,,Overcast,340,2012-12-31 20:15:00
2:35 PM,24.8,17.6,74,30.11,10.0,North,11.5,-,N/A,,Mostly Cloudy,350,2012-12-31 20:35:00
2:55 PM,24.8,15.8,69,30.11,10.0,North,9.2,-,N/A,,Mostly Cloudy,350,2012-12-31 20:55:00
3:15 PM,24.8,15.8,69,30.11,10.0,North,8.1,-,N/A,,Mostly Cloudy,350,2012-12-31 21:15:00
3:35 PM,24.8,17.6,74,30.12,10.0,North,8.1,-,N/A,,Overcast,360,2012-12-31 21:35:00
3:55 PM,24.8,15.8,69,30.10,10.0,North,8.1,-,N/A,,Mostly Cloudy,350,2012-12-31 21:55:00
4:15 PM,24.8,15.8,69,30.12,10.0,North,5.8,-,N/A,,Overcast,350,2012-12-31 22:15:00
4:35 PM,24.8,15.8,69,30.11,10.0,NNW,4.6,-,N/A,,Overcast,340,2012-12-31 22:35:00
4:55 PM,24.8,15.8,69,30.11,10.0,NNW,4.6,-,N/A,,Overcast,340,2012-12-31 22:55:00
5:15 PM,24.8,15.8,69,30.12,10.0,NNW,4.6,-,N/A,,Overcast,340,2012-12-31 23:15:00
5:35 PM,24.8,15.8,69,30.13,10.0,NNW,8.1,-,N/A,,Overcast,330,2012-12-31 23:35:00
5:55 PM,23.0,15.8,74,30.13,10.0,NNW,9.2,-,N/A,,Overcast,330,2012-12-31 23:55:00
6:15 PM,23.0,14.0,68,30.12,10.0,NNW,8.1,-,N/A,,Overcast,340,2013-01-01 00:15:00
6:35 PM,23.0,14.0,68,30.12,10.0,NNW,8.1,-,N/A,,Overcast,340,2013-01-01 00:35:00
6:55 PM,21.2,14.0,74,30.14,7.0,NNW,5.8,-,N/A,Snow,Light Snow,340,2013-01-01 00:55:00
7:35 PM,21.2,12.2,68,30.14,10.0,North,10.4,-,N/A,,Overcast,350,2013-01-01 01:35:00
7:55 PM,21.2,12.2,68,30.15,10.0,NNW,10.4,-,N/A,,Overcast,340,2013-01-01 01:55:00
8:35 PM,21.2,12.2,68,30.16,10.0,NNW,10.4,-,N/A,,Overcast,340,2013-01-01 02:35:00
8:55 PM,21.2,10.4,63,30.16,10.0,North,10.4,-,N/A,Snow,Light Snow,350,2013-01-01 02:55:00
9:35 PM,21.2,12.2,68,30.16,10.0,North,6.9,-,N/A,Snow,Light Snow,350,2013-01-01 03:35:00
9:55 PM,21.2,12.2,68,30.17,7.0,NNW,5.8,-,N/A,Snow,Light Snow,330,2013-01-01 03:55:00
10:15 PM,19.4,12.2,74,30.17,7.0,North,6.9,-,N/A,Snow,Light Snow,350,2013-01-01 04:15:00
10:35 PM,19.4,12.2,74,30.17,10.0,North,9.2,-,N/A,Snow,Light Snow,360,2013-01-01 04:35:00
10:55 PM,21.2,12.2,68,30.18,10.0,North,6.9,-,N/A,,Overcast,360,2013-01-01 04:55:00
11:15 PM,21.2,12.2,68,30.18,10.0,North,11.5,-,N/A,,Overcast,350,2013-01-01 05:15:00
11:35 PM,19.4,10.4,68,30.18,10.0,North,11.5,-,N/A,,Overcast,350,2013-01-01 05:35:00
11:55 PM,19.4,10.4,68,30.17,10.0,North,11.5,-,N/A,,Overcast,360,2013-01-01 05:55:00